• Em Portugal
  • Lista de países
  • Para 7 dias
  • Temperatura da água
  • Mapas de satélite
  • Mapa do tempo
  • Widgets de tempo
  • user-avatar
    Iniciar Sessão

    Previsão horária em Gobabis

    Hoje, 14 Dezembro, Quinta-feira

    Tempo Temperatura Precipitação Vento Pressão Humidade
    00:00 +26°C° 0 mm 4 m/s 640 mmHg 13%
    01:00 +25°C° 0 mm 3 m/s 640 mmHg 13%
    02:00 +23°C° 0 mm 4 m/s 640 mmHg 13%
    03:00 +22°C° 0 mm 4 m/s 640 mmHg 14%
    04:00 +22°C° 0 mm 4 m/s 640 mmHg 14%
    05:00 +23°C° 0 mm 5 m/s 640 mmHg 13%
    06:00 +23°C° 0 mm 5 m/s 641 mmHg 12%
    07:00 +24°C° 0 mm 6 m/s 642 mmHg 11%
    08:00 +27°C° 0 mm 6 m/s 642 mmHg 10%
    09:00 +29°C° 0 mm 6 m/s 642 mmHg 9%
    10:00 +32°C° 0 mm 5 m/s 643 mmHg 8%
    11:00 +33°C° 0 mm 5 m/s 642 mmHg 9%
    12:00 +34°C° 0 mm 4 m/s 642 mmHg 10%
    13:00 +35°C° 0 mm 4 m/s 641 mmHg 10%
    14:00 +36°C° 0 mm 3 m/s 641 mmHg 10%
    15:00 +36°C° 0 mm 3 m/s 641 mmHg 10%
    16:00 +36°C° 0 mm 2 m/s 641 mmHg 10%
    17:00 +35°C° 0 mm 3 m/s 640 mmHg 11%
    18:00 +34°C° 0 mm 3 m/s 640 mmHg 12%
    19:00 +33°C° 0 mm 4 m/s 640 mmHg 13%
    20:00 +32°C° 0 mm 4 m/s 640 mmHg 14%
    21:00 +30°C° 0 mm 4 m/s 640 mmHg 16%
    22:00 +29°C° 0 mm 4 m/s 641 mmHg 17%
    23:00 +28°C° 0 mm 5 m/s 641 mmHg 20%

    Amanhã, 15 Dezembro, Sexta-feira

    Tempo Temperatura Precipitação Vento Pressão Humidade
    00:00 +28°C° 0 mm 5 m/s 640 mmHg 22%
    01:00 +27°C° 0 mm 5 m/s 640 mmHg 24%
    02:00 +26°C° 0 mm 4 m/s 640 mmHg 28%
    03:00 +26°C° 0 mm 4 m/s 640 mmHg 33%
    04:00 +25°C° 0 mm 3 m/s 640 mmHg 37%
    05:00 +26°C° 0 mm 4 m/s 641 mmHg 36%
    06:00 +27°C° 0 mm 5 m/s 641 mmHg 35%
    07:00 +28°C° 0 mm 6 m/s 642 mmHg 34%
    08:00 +30°C° 0 mm 6 m/s 642 mmHg 31%
    09:00 +32°C° 0 mm 7 m/s 643 mmHg 29%
    10:00 +34°C° 0 mm 7 m/s 643 mmHg 26%
    11:00 +34°C° 0 mm 6 m/s 642 mmHg 26%
    12:00 +34°C° 0 mm 6 m/s 642 mmHg 27%
    13:00 +34°C° 0 mm 6 m/s 641 mmHg 27%
    14:00 +34°C° 0 mm 5 m/s 641 mmHg 27%
    15:00 +34°C° 0 mm 4 m/s 641 mmHg 26%
    16:00 +34°C° 0 mm 3 m/s 640 mmHg 25%
    17:00 +34°C° 0 mm 3 m/s 640 mmHg 26%
    18:00 +33°C° 0 mm 3 m/s 640 mmHg 28%
    19:00 +31°C° 0 mm 3 m/s 640 mmHg 29%
    20:00 +30°C° 0,5 mm 4 m/s 640 mmHg 34%
    21:00 +29°C° 0,5 mm 5 m/s 641 mmHg 39%
    22:00 +28°C° 0,5 mm 6 m/s 641 mmHg 43%
    23:00 +28°C° 0 mm 5 m/s 641 mmHg 43%

    Depois de amanhã, 16 Dezembro, Sábado

    Tempo Temperatura Precipitação Vento Pressão Humidade
    00:00 +28°C° 0 mm 4 m/s 640 mmHg 42%
    01:00 +28°C° 0 mm 2 m/s 640 mmHg 42%
    02:00 +27°C° 0,2 mm 2 m/s 640 mmHg 42%
    03:00 +27°C° 0,2 mm 2 m/s 640 mmHg 42%
    04:00 +27°C° 0,2 mm 2 m/s 640 mmHg 43%
    05:00 +27°C° 0,4 mm 3 m/s 641 mmHg 42%
    06:00 +27°C° 0,4 mm 4 m/s 641 mmHg 41%
    07:00 +28°C° 0,4 mm 4 m/s 642 mmHg 40%
    08:00 +29°C° 0 mm 5 m/s 642 mmHg 36%
    09:00 +32°C° 0 mm 6 m/s 643 mmHg 33%
    10:00 +34°C° 0 mm 7 m/s 643 mmHg 29%
    11:00 +34°C° 0 mm 7 m/s 643 mmHg 28%
    12:00 +34°C° 0 mm 6 m/s 642 mmHg 28%
    13:00 +34°C° 0 mm 6 m/s 642 mmHg 27%
    14:00 +34°C° 0 mm 6 m/s 641 mmHg 27%
    15:00 +34°C° 0 mm 6 m/s 641 mmHg 27%
    16:00 +34°C° 0 mm 5 m/s 640 mmHg 27%
    17:00 +33°C° 0,1 mm 5 m/s 640 mmHg 29%
    18:00 +32°C° 0,1 mm 4 m/s 640 mmHg 31%
    19:00 +30°C° 0,1 mm 4 m/s 640 mmHg 33%
    20:00 +29°C° 0,1 mm 4 m/s 641 mmHg 37%
    21:00 +28°C° 0,1 mm 5 m/s 641 mmHg 40%
    22:00 +28°C° 0,1 mm 5 m/s 641 mmHg 44%
    23:00 +27°C° 0,3 mm 5 m/s 641 mmHg 47%

    17 Dezembro, Domingo

    Tempo Temperatura Precipitação Vento Pressão Humidade
    00:00 +26°C° 0,3 mm 5 m/s 640 mmHg 49%
    01:00 +25°C° 0,3 mm 4 m/s 640 mmHg 52%
    02:00 +25°C° 0,7 mm 4 m/s 640 mmHg 54%
    03:00 +24°C° 0,7 mm 3 m/s 639 mmHg 56%
    04:00 +22°C° 0,7 mm 3 m/s 639 mmHg 58%
    05:00 +24°C° 0,4 mm 3 m/s 640 mmHg 54%
    06:00 +25°C° 0,4 mm 2 m/s 640 mmHg 51%
    07:00 +25°C° 0,4 mm 2 m/s 641 mmHg 47%
    08:00 +27°C° 0,3 mm 2 m/s 641 mmHg 43%
    09:00 +29°C° 0,3 mm 3 m/s 642 mmHg 39%
    10:00 +32°C° 0,3 mm 4 m/s 642 mmHg 35%
    11:00 +32°C° 0 mm 4 m/s 641 mmHg 34%
    12:00 +32°C° 0 mm 4 m/s 641 mmHg 33%
    13:00 +33°C° 0 mm 5 m/s 640 mmHg 32%
    14:00 +32°C° 0,1 mm 5 m/s 640 mmHg 34%
    15:00 +32°C° 0,1 mm 5 m/s 639 mmHg 35%
    16:00 +30°C° 0,1 mm 4 m/s 639 mmHg 37%
    17:00 +29°C° 0,6 mm 4 m/s 639 mmHg 42%
    18:00 +28°C° 0,6 mm 4 m/s 639 mmHg 47%
    19:00 +27°C° 0,6 mm 4 m/s 639 mmHg 53%
    20:00 +27°C° 0,1 mm 4 m/s 639 mmHg 52%
    21:00 +27°C° 0,1 mm 4 m/s 640 mmHg 51%
    22:00 +27°C° 0,1 mm 3 m/s 640 mmHg 50%
    23:00 +26°C° 0,1 mm 3 m/s 640 mmHg 49%

    18 Dezembro, Segunda-feira

    Tempo Temperatura Precipitação Vento Pressão Humidade
    00:00 +26°C° 0,1 mm 3 m/s 639 mmHg 49%
    01:00 +25°C° 0,1 mm 3 m/s 639 mmHg 49%
    02:00 +25°C° 0,1 mm 3 m/s 639 mmHg 46%
    03:00 +24°C° 0,1 mm 3 m/s 639 mmHg 43%
    04:00 +24°C° 0,1 mm 3 m/s 639 mmHg 39%
    05:00 +23°C° 0 mm 4 m/s 639 mmHg 36%
    06:00 +25°C° 0 mm 4 m/s 640 mmHg 33%
    07:00 +25°C° 0 mm 5 m/s 640 mmHg 30%
    08:00 +27°C° 0 mm 4 m/s 641 mmHg 28%
    09:00 +28°C° 0 mm 3 m/s 641 mmHg 26%
    10:00 +30°C° 0 mm 3 m/s 641 mmHg 24%
    11:00 +31°C° 0 mm 2 m/s 641 mmHg 24%
    12:00 +32°C° 0 mm 1 m/s 640 mmHg 23%
    13:00 +33°C° 0 mm 1 m/s 640 mmHg 23%
    14:00 +33°C° 0 mm 1 m/s 640 mmHg 23%
    15:00 +33°C° 0 mm 1 m/s 639 mmHg 23%
    16:00 +34°C° 0 mm 2 m/s 639 mmHg 23%
    17:00 +32°C° 0 mm 2 m/s 639 mmHg 24%
    18:00 +32°C° 0 mm 2 m/s 639 mmHg 25%
    19:00 +31°C° 0 mm 3 m/s 639 mmHg 26%
    20:00 +31°C° 0 mm 3 m/s 639 mmHg 29%
    21:00 +30°C° 0 mm 4 m/s 639 mmHg 31%
    22:00 +29°C° 0 mm 5 m/s 640 mmHg 34%
    23:00 +29°C° 0,1 mm 5 m/s 639 mmHg 35%

    19 Dezembro, Terça-feira

    Tempo Temperatura Precipitação Vento Pressão Humidade
    00:00 +28°C° 0,1 mm 5 m/s 639 mmHg 37%
    01:00 +27°C° 0,1 mm 6 m/s 638 mmHg 38%
    02:00 +26°C° 0,1 mm 5 m/s 638 mmHg 36%
    03:00 +26°C° 0,1 mm 5 m/s 638 mmHg 33%
    04:00 +25°C° 0,1 mm 5 m/s 638 mmHg 31%
    05:00 +26°C° 0 mm 5 m/s 639 mmHg 29%
    06:00 +26°C° 0 mm 5 m/s 639 mmHg 28%
    07:00 +27°C° 0 mm 5 m/s 640 mmHg 26%
    08:00 +28°C° 0 mm 5 m/s 640 mmHg 24%
    09:00 +30°C° 0 mm 4 m/s 640 mmHg 22%
    10:00 +32°C° 0 mm 4 m/s 640 mmHg 19%
    11:00 +33°C° 0,1 mm 4 m/s 640 mmHg 21%
    12:00 +33°C° 0,1 mm 4 m/s 640 mmHg 22%
    13:00 +34°C° 0,1 mm 4 m/s 639 mmHg 24%
    14:00 +33°C° 0,1 mm 5 m/s 639 mmHg 28%
    15:00 +32°C° 0,1 mm 6 m/s 638 mmHg 33%
    16:00 +30°C° 0,1 mm 7 m/s 637 mmHg 37%
    17:00 +29°C° 0,1 mm 7 m/s 637 mmHg 38%
    18:00 +28°C° 0,1 mm 7 m/s 638 mmHg 40%
    19:00 +28°C° 0,1 mm 7 m/s 638 mmHg 41%
    20:00 +27°C° 0 mm 6 m/s 638 mmHg 42%
    21:00 +27°C° 0 mm 5 m/s 638 mmHg 43%
    22:00 +27°C° 0 mm 4 m/s 638 mmHg 44%
    23:00 +27°C° 0,1 mm 4 m/s 638 mmHg 47%
    Mostrar mais